Regional Weather Roundup
Issued by NWS Cleveland, OH

Home | Current Version | Previous Version | Graphics & Text | Print | Product List | Glossary On
Versions: 1 2 3 4 5 6 7 8 9 10 11 12 13 14 15 16 17 18 19 20 21 22 23 24 25 26 27 28 29 30 31 32 33 34 35 36 37 38 39 40 41 42 43 44 45 46 47 48 49 50
000
ASUS41 KCLE 260312
RWRCLE
OHIO REGIONAL WEATHER ROUNDUP
NATIONAL WEATHER SERVICE WILMINGTON, OH
1100 PM EDT MON SEP 25 2017

NOTE: "FAIR" INDICATES FEW OR NO CLOUDS BELOW 12,000 FEET WITH NO
SIGNIFICANT WEATHER AND/OR OBSTRUCTIONS TO VISIBILITY.

OHZ001>008-015>018-024>027-034-035-043-044-260400-
   NORTHWEST OHIO

CITY           SKY/WX    TMP DP  RH WIND       PRES   REMARKS
DEFIANCE       FAIR      74  63  68 S3        29.98S
FINDLAY        FAIR      77  64  64 CALM      29.98S
TOLEDO EXPRESS FAIR      72  67  84 CALM      29.98S
TOLEDO EXEC    FAIR      73  67  81 E3        29.99S
LIMA           FAIR      70  64  81 CALM      30.00R
$$

OHZ009>014-019>023-028>033-038-089-260400-
   NORTHEAST OHIO

CITY           SKY/WX    TMP DP  RH WIND       PRES   REMARKS
CLE-HOPKINS    MOCLDY    76  63  64 S6        30.02R
CLE-LAKEFRONT  FAIR      78  62  57 SE6       29.99R
CUY CO. ARPT   PTCLDY    77  64  65 SE7       30.02S
LORAIN-ELYRIA  FAIR      67  60  78 CALM      30.01S
ASHTABULA      FAIR      70  67  90 CALM      30.03S
AKRON-CANTON   MOCLDY    74  58  57 S6        30.03S
WOOSTER        FAIR      62  61  96 CALM      30.03S
MANSFIELD      FAIR      72  64  76 SE7       30.03S
YOUNGSTOWN     MOCLDY    70  63  78 SE6       30.04R
$$

OHZ042-051>053-060>062-070>072-077>081-260400-
  SOUTHWEST OHIO

CITY           SKY/WX    TMP DP  RH WIND       PRES   REMARKS
CINC-COVINGTON FAIR      69  66  90 S5        30.00R
CINC-LUNKEN    FAIR      68  67  96 CALM      30.00R
HAMILTON       FAIR      65  64  97 CALM      30.00R
DAYTON         MOCLDY    73  60  63 SE5       30.01R
WRIGHT-PAT AFB MOCLDY    69  64  84 CALM      30.00R
DAYTON GENERAL FAIR      74  60  61 CALM      30.00R
WILMINGTON     FAIR      68  64  87 CALM      30.01S
$$

OHZ036-037-039>041-045>050-054>059-063>069-073>076-082>088-260400-
  CENTRAL AND SOUTHEAST OHIO

CITY           SKY/WX    TMP DP  RH WIND       PRES   REMARKS
COLUMBUS       MOCLDY    76  65  68 E3        30.00S
OSU AIRPORT    FAIR      76  65  68 SE5       30.01R
BOLTON FIELD   FAIR      70  64  81 S5        30.01S
RICKENBACK AFB FAIR      71  64  79 SE6       30.00S
NEWARK         FAIR      67  65  93 CALM      30.01S
MARION         FAIR      72  62  71 S6        30.02R
LANCASTER      FAIR      64  63  96 CALM      30.02S
ZANESVILLE     FAIR      68  64  87 CALM      30.02S
NEW PHILLY     FAIR      65  61  87 CALM      30.03S
$$




USA.gov is the U.S. government's official web portal to all federal, state and local government web resources and services.